When you browse on this site, cookies collect data to enhance your experience and personalize the content and advertising you see.
Visit our Privacy Policy to learn more. By continuing to use the site, you agree to this use of cookies and data.
  • In Lithuania
  • List of Countries
  • For 7 days
  • Water Temperature
  • Satellite Maps
  • Weather Map
  • Weather Widgets
  • user-avatar
    Login

    Hourly Weather Srosty

    Today, 17 July, Wednesday

    Time Temperature Precipitation Wind Pressure Humidity
    00:00 +18°C° 0 mm 2 mps 733 mmHg 70%
    01:00 +17°C° 0 mm 2 mps 733 mmHg 70%
    02:00 +17°C° 0 mm 3 mps 732 mmHg 70%
    03:00 +17°C° 0 mm 3 mps 733 mmHg 68%
    04:00 +18°C° 0 mm 3 mps 733 mmHg 66%
    05:00 +18°C° 0 mm 3 mps 733 mmHg 63%
    06:00 +21°C° 0 mm 4 mps 733 mmHg 54%
    07:00 +25°C° 0 mm 4 mps 733 mmHg 44%
    08:00 +28°C° 0 mm 5 mps 734 mmHg 35%
    09:00 +29°C° 0 mm 5 mps 734 mmHg 32%
    10:00 +32°C° 0 mm 5 mps 734 mmHg 29%
    11:00 +33°C° 0 mm 4 mps 734 mmHg 26%
    12:00 +34°C° 0 mm 5 mps 733 mmHg 26%
    13:00 +34°C° 0 mm 5 mps 733 mmHg 26%
    14:00 +34°C° 0 mm 5 mps 733 mmHg 26%
    15:00 +34°C° 0 mm 4 mps 733 mmHg 28%
    16:00 +34°C° 0 mm 4 mps 733 mmHg 29%
    17:00 +34°C° 0 mm 3 mps 733 mmHg 31%
    18:00 +30°C° 0.3 mm 3 mps 733 mmHg 42%
    19:00 +27°C° 0.3 mm 2 mps 732 mmHg 54%
    20:00 +24°C° 0.3 mm 2 mps 732 mmHg 65%
    21:00 +23°C° 0.1 mm 2 mps 732 mmHg 71%
    22:00 +21°C° 0.1 mm 2 mps 732 mmHg 76%
    23:00 +20°C° 0.1 mm 3 mps 732 mmHg 82%

    Tomorrow, 18 July, Thursday

    Time Temperature Precipitation Wind Pressure Humidity
    00:00 +19°C° 0 mm 2 mps 732 mmHg 85%
    01:00 +19°C° 0 mm 2 mps 732 mmHg 89%
    02:00 +18°C° 0 mm 2 mps 732 mmHg 92%
    03:00 +18°C° 0 mm 2 mps 733 mmHg 91%
    04:00 +18°C° 0 mm 2 mps 733 mmHg 89%
    05:00 +19°C° 0 mm 2 mps 734 mmHg 88%
    06:00 +20°C° 0 mm 2 mps 734 mmHg 80%
    07:00 +23°C° 0 mm 2 mps 734 mmHg 72%
    08:00 +25°C° 0 mm 2 mps 734 mmHg 64%
    09:00 +26°C° 0.5 mm 2 mps 734 mmHg 62%
    10:00 +27°C° 0.5 mm 2 mps 735 mmHg 61%
    11:00 +28°C° 0.5 mm 3 mps 735 mmHg 59%
    12:00 +28°C° 1 mm 3 mps 735 mmHg 61%
    13:00 +27°C° 1 mm 3 mps 734 mmHg 62%
    14:00 +27°C° 1 mm 3 mps 734 mmHg 63%
    15:00 +27°C° 0.2 mm 3 mps 734 mmHg 62%
    16:00 +28°C° 0.2 mm 3 mps 734 mmHg 61%
    17:00 +28°C° 0.2 mm 3 mps 734 mmHg 60%
    18:00 +26°C° 0 mm 2 mps 734 mmHg 64%
    19:00 +24°C° 0 mm 2 mps 734 mmHg 68%
    20:00 +23°C° 0 mm 1 mps 734 mmHg 72%
    21:00 +22°C° 0 mm 1 mps 734 mmHg 74%
    22:00 +21°C° 0 mm 1 mps 734 mmHg 76%
    23:00 +20°C° 0 mm 1 mps 734 mmHg 78%

    Day after tomorrow, 19 July, Friday

    Time Temperature Precipitation Wind Pressure Humidity
    00:00 +20°C° 0 mm 1 mps 734 mmHg 80%
    01:00 +20°C° 0 mm 1 mps 734 mmHg 81%
    02:00 +19°C° 0 mm 1 mps 734 mmHg 83%
    03:00 +20°C° 0 mm 1 mps 734 mmHg 82%
    04:00 +20°C° 0 mm 1 mps 734 mmHg 81%
    05:00 +20°C° 0 mm 1 mps 735 mmHg 80%
    06:00 +21°C° 0 mm 2 mps 735 mmHg 72%
    07:00 +24°C° 0 mm 2 mps 735 mmHg 63%
    08:00 +26°C° 0 mm 2 mps 735 mmHg 54%
    09:00 +27°C° 0.4 mm 3 mps 735 mmHg 55%
    10:00 +27°C° 0.4 mm 3 mps 735 mmHg 55%
    11:00 +28°C° 0.4 mm 3 mps 735 mmHg 55%
    12:00 +28°C° 1.7 mm 4 mps 735 mmHg 55%
    13:00 +28°C° 1.7 mm 4 mps 735 mmHg 54%
    14:00 +28°C° 1.7 mm 4 mps 734 mmHg 54%
    15:00 +29°C° 0.3 mm 4 mps 735 mmHg 50%
    16:00 +29°C° 0.3 mm 5 mps 735 mmHg 47%
    17:00 +29°C° 0.3 mm 5 mps 735 mmHg 43%
    18:00 +27°C° 0 mm 4 mps 735 mmHg 53%
    19:00 +23°C° 0 mm 4 mps 735 mmHg 63%
    20:00 +21°C° 0 mm 3 mps 735 mmHg 73%
    21:00 +20°C° 0 mm 3 mps 735 mmHg 77%
    22:00 +20°C° 0 mm 3 mps 735 mmHg 81%
    23:00 +19°C° 0 mm 3 mps 735 mmHg 85%

    20 July, Saturday

    Time Temperature Precipitation Wind Pressure Humidity
    00:00 +19°C° 0 mm 3 mps 735 mmHg 88%
    01:00 +18°C° 0 mm 2 mps 735 mmHg 90%
    02:00 +17°C° 0 mm 2 mps 735 mmHg 93%
    03:00 +18°C° 0 mm 2 mps 735 mmHg 91%
    04:00 +18°C° 0 mm 2 mps 735 mmHg 89%
    05:00 +18°C° 0 mm 2 mps 735 mmHg 87%
    06:00 +20°C° 0 mm 3 mps 735 mmHg 77%
    07:00 +22°C° 0 mm 3 mps 736 mmHg 68%
    08:00 +25°C° 0 mm 3 mps 736 mmHg 58%
    09:00 +26°C° 0.1 mm 4 mps 736 mmHg 54%
    10:00 +27°C° 0.1 mm 4 mps 735 mmHg 49%
    11:00 +29°C° 0.1 mm 5 mps 735 mmHg 45%
    12:00 +29°C° 0.3 mm 5 mps 735 mmHg 45%
    13:00 +29°C° 0.3 mm 5 mps 735 mmHg 46%
    14:00 +29°C° 0.3 mm 5 mps 735 mmHg 46%
    15:00 +28°C° 0.3 mm 5 mps 734 mmHg 51%
    16:00 +27°C° 0.3 mm 4 mps 734 mmHg 55%
    17:00 +27°C° 0.3 mm 4 mps 734 mmHg 59%
    18:00 +25°C° 0.3 mm 3 mps 734 mmHg 67%
    19:00 +23°C° 0.3 mm 2 mps 734 mmHg 74%
    20:00 +21°C° 0.3 mm 2 mps 734 mmHg 81%
    21:00 +21°C° 0 mm 1 mps 733 mmHg 84%
    22:00 +20°C° 0 mm 1 mps 733 mmHg 87%
    23:00 +20°C° 0 mm 1 mps 733 mmHg 90%

    21 July, Sunday

    Time Temperature Precipitation Wind Pressure Humidity
    00:00 +19°C° 0 mm 1 mps 733 mmHg 90%
    01:00 +19°C° 0 mm 1 mps 733 mmHg 91%
    02:00 +17°C° 0 mm 0 mps 732 mmHg 92%
    03:00 +19°C° 0.1 mm 1 mps 732 mmHg 91%
    04:00 +19°C° 0.1 mm 1 mps 732 mmHg 90%
    05:00 +20°C° 0.1 mm 1 mps 733 mmHg 89%
    06:00 +22°C° 0.1 mm 1 mps 733 mmHg 81%
    07:00 +24°C° 0.1 mm 1 mps 733 mmHg 72%
    08:00 +26°C° 0.1 mm 1 mps 733 mmHg 64%
    09:00 +27°C° 0.1 mm 2 mps 732 mmHg 57%
    10:00 +28°C° 0.1 mm 2 mps 732 mmHg 51%
    11:00 +30°C° 0.1 mm 2 mps 732 mmHg 44%
    12:00 +30°C° 0.1 mm 3 mps 732 mmHg 44%
    13:00 +30°C° 0.1 mm 3 mps 732 mmHg 44%
    14:00 +30°C° 0.1 mm 4 mps 732 mmHg 44%
    15:00 +29°C° 0.3 mm 4 mps 732 mmHg 47%
    16:00 +28°C° 0.3 mm 4 mps 732 mmHg 50%
    17:00 +28°C° 0.3 mm 4 mps 732 mmHg 54%
    18:00 +25°C° 0 mm 4 mps 732 mmHg 55%
    19:00 +22°C° 0 mm 3 mps 732 mmHg 56%
    20:00 +20°C° 0 mm 3 mps 732 mmHg 58%
    21:00 +19°C° 0 mm 3 mps 732 mmHg 64%
    22:00 +18°C° 0 mm 3 mps 732 mmHg 70%
    23:00 +16°C° 0 mm 3 mps 732 mmHg 77%

    22 July, Monday

    Time Temperature Precipitation Wind Pressure Humidity
    00:00 +16°C° 0 mm 3 mps 732 mmHg 78%
    01:00 +15°C° 0 mm 2 mps 732 mmHg 79%
    02:00 +15°C° 0 mm 2 mps 732 mmHg 80%
    03:00 +15°C° 0 mm 2 mps 732 mmHg 77%
    04:00 +15°C° 0 mm 2 mps 732 mmHg 74%
    05:00 +15°C° 0 mm 2 mps 732 mmHg 72%
    06:00 +18°C° 0 mm 2 mps 732 mmHg 62%
    07:00 +20°C° 0 mm 2 mps 733 mmHg 53%
    08:00 +24°C° 0 mm 2 mps 733 mmHg 44%
    09:00 +25°C° 0 mm 2 mps 733 mmHg 38%
    10:00 +26°C° 0 mm 2 mps 733 mmHg 33%
    11:00 +28°C° 0 mm 2 mps 733 mmHg 27%
    12:00 +28°C° 0 mm 2 mps 733 mmHg 26%
    13:00 +29°C° 0 mm 2 mps 733 mmHg 24%
    14:00 +30°C° 0 mm 2 mps 733 mmHg 23%
    15:00 +29°C° 0 mm 3 mps 733 mmHg 24%
    16:00 +29°C° 0 mm 3 mps 733 mmHg 25%
    17:00 +28°C° 0 mm 3 mps 733 mmHg 27%
    18:00 +26°C° 0 mm 3 mps 733 mmHg 33%
    19:00 +24°C° 0 mm 3 mps 732 mmHg 40%
    20:00 +20°C° 0 mm 2 mps 732 mmHg 47%
    21:00 +20°C° 0 mm 2 mps 732 mmHg 50%
    22:00 +19°C° 0 mm 2 mps 732 mmHg 54%
    23:00 +18°C° 0 mm 2 mps 732 mmHg 57%
    Show more